Weather in Irgiz

Kazakhstan     48˚37′10″N   61˚15′36″E
temp.,
°C
wind,
m/s
gust,
m/s
humid.,
%
clouds,
%
prec.,
mm/h
press.,
hPa
HPBL,
m
27 november, fri
fri2723:00−4˚sse359798 0.5 1025104
02:00−4˚sse239798 0.1 102456
05:00−3˚sse349798 0.8 1025136
08:00−4˚sse239794 0.4 102548
11:00−2˚sse129297 1.1 1026159
14:00−2˚se0092100 0.3 1026196
17:00−3˚nnw129492 0.3 102624
20:00−4˚nnw339499 0.0 102789
28 november, sat
sat2823:00−6˚nw459168 0.0 102884
02:00−7˚nw479218 0.0 1029155
05:00−7˚nw59919 0.0 1031218
08:00−8˚nw59900 0.0 1034220
11:00−7˚nw58810 0.0 1037287
14:00−5˚nw57750 0.0 1038341
17:00−7˚nw46850 0.0 1041119
20:00−8˚nnw34860 0.0 104278
29 november, sun
sun2923:00−9˚nnw33870 0.0 104461
02:00−10˚nnw23860 0.0 104628
05:00−10˚n23860 0.0 104728
08:00−11˚nne33860 0.0 104850
11:00−8˚ne33760 0.0 1050218
14:00−6˚nne23690 0.0 1049319
17:00−9˚nne34840 0.0 104973
20:00−10˚ne35890 0.0 1050133
30 november, mon
mon3023:00−11˚nne35910 0.0 1050148
02:00−12˚ne47920 0.0 1050226
05:00−13˚nne479319 0.0 1050216
08:00−13˚ne589262 0.0 1049268
11:00−12˚ne588271 0.0 1050339
14:00−10˚ne697521 0.0 1048397
17:00−11˚ne6108311 0.0 1047341
20:00−13˚ne611870 0.0 1047341
1 december, tue
tue123:00−14˚ne6118820 0.0 1047340
02:00−15˚ne6108710 0.0 1046319
05:00−15˚ne610865 0.0 1045307
08:00−16˚ne610870 0.0 1046270
11:00−14˚ne69801 0.0 1045314
14:00−12˚ne710750 0.0 1044402
17:00−13˚ne610840 0.0 1044344
20:00−14˚ne610893 0.0 1044288